Andravida, Greece

8:27 AM EET on December 15, 2017 (GMT +0200)
Andravida Air Base

Weather History for LGAD - December, 2017

Change the Weather History Date:

Thursday, December 7, 2017

  Actual Average Record
Temperature  
Mean Temperature 47 °F -  
Max Temperature 58 °F 57 °F 66 °F (2005)
Min Temperature 36 °F 41 °F 35 °F (2007)
Degree Days  
Heating Degree Days 18    
Moisture  
Dew Point 37 °F    
Average Humidity 69    
Maximum Humidity 87    
Minimum Humidity 38    
Precipitation  
Precipitation 0.00 in - - ()
Sea Level Pressure  
Sea Level Pressure 30.37 in    
Wind  
Wind Speed 1 mph ()    
Max Wind Speed 5 mph    
Max Gust Speed -    
Visibility 6.0 miles    
Events      
Averages and records for this station are not official NWS values.
T = Trace of Precipitation, MM = Missing Value Source: Averaged Metar Reports

Daily Weather History Graph

Daily Weather History Graph

Search for Another Location

Airport or City:

Trip Planner

Search our weather history database for the weather conditions in past years. The results will help you decide how hot, cold, wet, or windy it might be!

Date:

Astronomy

Dec. 07, 2017 Rise Set
Actual Time 7:37 AM EET 5:15 PM EET
Civil Twilight 7:08 AM EET 5:44 PM EET
Nautical Twilight 6:35 AM EET 6:17 PM EET
Astronomical Twilight 6:03 AM EET 6:49 PM EET
Moon 9:39 PM EET (12/7) 11:03 AM EET (12/7)
Length of Visible Light 10h 36m
Length of Day
9h 38m
Waning Gibbous, 81% of the Moon is Illuminated
Dec 7
Waning Gibbous
Dec 10
Last Quarter
Dec 18
New
Dec 26
First Quarter
Jan 2
Full

Hourly Weather History & Observations

Time (EET) Temp. Windchill Dew Point Humidity Pressure Visibility Wind Dir Wind Speed Gust Speed Precip Events Conditions
12:20 AM 41.0 °F - 30.2 °F 65% 30.42 in - Calm Calm - N/A   Clear
12:50 AM 39.2 °F - 32.0 °F 75% 30.39 in - Calm Calm - N/A   Clear
1:20 AM 39.2 °F - 32.0 °F 75% 30.39 in - Calm Calm - N/A   Clear
1:50 AM 39.2 °F 35.9 °F 32.0 °F 75% 30.39 in - SE 4.6 mph - N/A   Clear
2:00 AM 40 °F - 31 °F 62% 30.41 in 6 mi SE 4.6 mph - -  
2:20 AM 39.2 °F 35.9 °F 32.0 °F 75% 30.39 in - SE 4.6 mph - N/A   Clear
2:50 AM 39.2 °F - 32.0 °F 75% 30.39 in - Calm Calm - N/A   Clear
3:50 AM 39.2 °F - 32.0 °F 75% 30.39 in - Calm Calm - N/A   Clear
5:00 AM 39 °F - 31 °F 65% 30.39 in 6 mi Calm Calm - -  
5:20 AM 39.2 °F - 32.0 °F 75% 30.36 in - Calm Calm - N/A   Clear
6:20 AM 39.2 °F - 32.0 °F 75% 30.36 in - Calm Calm - N/A   Clear
6:50 AM 35.6 °F - 32.0 °F 87% 30.39 in - Calm Calm - N/A   Clear
7:20 AM 35.6 °F - 32.0 °F 87% 30.39 in - Calm Calm - N/A   Clear
7:50 AM 35.6 °F - 32.0 °F 87% 30.39 in - Calm Calm - N/A   Clear
8:00 AM 36 °F - 31 °F 77% 30.40 in 6 mi Calm Calm - -  
8:20 AM 39.2 °F 37.0 °F 32.0 °F 75% 30.39 in - Variable 3.5 mph - N/A   Clear
8:50 AM 44.6 °F - 35.6 °F 71% 30.39 in - Calm Calm - N/A   Clear
9:20 AM 46.4 °F - 37.4 °F 71% 30.39 in - Calm Calm - N/A   Clear
9:50 AM 53.6 °F - 37.4 °F 54% 30.39 in - Calm Calm - N/A   Clear
10:20 AM 55.4 °F - 37.4 °F 51% 30.39 in - Calm Calm - N/A   Clear
10:50 AM 57.2 °F - 37.4 °F 48% 30.39 in - Calm Calm - N/A   Clear
11:00 AM 56 °F - 38 °F 38% 30.41 in 6 mi Calm Calm - -  
11:20 AM 57.2 °F - 39.2 °F 51% 30.39 in - Calm Calm - N/A   Clear
11:50 AM 57.2 °F - 41.0 °F 55% 30.39 in - Calm Calm - N/A   Clear
12:20 PM 57.2 °F - 41.0 °F 55% 30.39 in - Calm Calm - N/A   Clear
12:50 PM 57.2 °F - 41.0 °F 55% 30.33 in - Calm Calm - N/A   Clear
1:20 PM 59.0 °F - 42.8 °F 55% 30.36 in - NNW 4.6 mph - N/A   Clear
1:50 PM 59.0 °F - 42.8 °F 55% 30.36 in - Calm Calm - N/A   Clear
2:00 PM 58 °F - 42 °F 44% 30.37 in 6 mi Calm Calm - -  
2:20 PM 57.2 °F - 42.8 °F 59% 30.33 in - North 4.6 mph - N/A   Clear
2:50 PM 59.0 °F - 42.8 °F 55% 30.33 in - Calm Calm - N/A   Clear
3:20 PM 59.0 °F - 42.8 °F 55% 30.33 in - Calm Calm - N/A   Clear
3:50 PM 57.2 °F - 42.8 °F 59% 30.33 in - Calm Calm - N/A   Clear
4:20 PM 57.2 °F - 42.8 °F 59% 30.33 in - Calm Calm - N/A   Clear
4:50 PM 55.4 °F - 42.8 °F 63% 30.36 in - Calm Calm - N/A   Clear
5:00 PM 55 °F - 43 °F 55% 30.36 in 6 mi Calm Calm - -  
5:20 PM 51.8 °F - 42.8 °F 71% 30.36 in - Calm Calm - N/A   Clear
5:50 PM 50.0 °F - 41.0 °F 71% 30.36 in - Calm Calm - N/A   Clear
6:20 PM 48.2 °F - 41.0 °F 76% 30.36 in - Calm Calm - N/A   Clear
6:50 PM 46.4 °F - 41.0 °F 81% 30.36 in - Calm Calm - N/A   Clear
7:20 PM 44.6 °F - 39.2 °F 81% 30.36 in - Calm Calm - N/A   Clear
7:50 PM 42.8 °F - 39.2 °F 87% 30.36 in - Calm Calm - N/A   Clear
8:00 PM 43 °F - 39 °F 80% 30.37 in 6 mi Calm Calm - -  
8:20 PM 44.6 °F 43.1 °F 39.2 °F 81% 30.36 in - Variable 3.5 mph - N/A   Clear
8:50 PM 44.6 °F 43.1 °F 41.0 °F 87% 30.36 in - Variable 3.5 mph - N/A   Clear
9:20 PM 44.6 °F 43.1 °F 39.2 °F 81% 30.36 in - Variable 3.5 mph - N/A   Clear
9:50 PM 44.6 °F 43.1 °F 39.2 °F 81% 30.36 in - Variable 3.5 mph - N/A   Clear
10:20 PM 42.8 °F 41.1 °F 37.4 °F 81% 30.36 in - Variable 3.5 mph - N/A   Clear
10:50 PM 42.8 °F 40.1 °F 37.4 °F 81% 30.36 in - SE 4.6 mph - N/A   Clear
11:00 PM 43 °F - 38 °F 75% 30.37 in 6 mi SE 4.6 mph - -  
11:20 PM 42.8 °F - 37.4 °F 81% 30.36 in - Calm Calm - N/A   Clear
11:50 PM 42.8 °F 41.1 °F 37.4 °F 81% 30.36 in - Variable 3.5 mph - N/A   Clear